Stations météo

réclame
Mon MeteoGroup
Kvikkjokk Arrenjarka A, Suède (2119): Température de l'air & dewpoint: 17.04.2018 04:00:00 - 23.04.2018 04:00:00 (CEST)Kvikkjokk Arrenjarka A, Suède (2119): Vitesse du vent & gusts: 17.04.2018 04:00:00 - 23.04.2018 04:00:00 (CEST)Kvikkjokk Arrenjarka A, Suède (2119): Direction du vent: 17.04.2018 04:00:00 - 23.04.2018 04:00:00 (CEST)Kvikkjokk Arrenjarka A, Suède (2119): reduced air pressure: 17.04.2018 04:00:00 - 23.04.2018 04:00:00 (CEST)Kvikkjokk Arrenjarka A, Suède (2119): visibility: 17.04.2018 04:00:00 - 23.04.2018 04:00:00 (CEST)Kvikkjokk Arrenjarka A, Suède (2119): Quantités de précipitations: 17.04.2018 04:00:00 - 23.04.2018 04:00:00 (CEST)
Date & Time tt [°C] td [°C] ff [km/h] ff [knt] fx [km/h] fx [knt] dd ppp [hPa] vv [km] rr [mm]
23.04.2018 04:00:00 - - - - - - - - - -
23.04.2018 03:00:00 -2,9 -3,4 3 1 6 3 NW 1012,6 50 0,0
23.04.2018 02:00:00 -1,8 -3,2 1 1 10 5 W 1012,9 50 0,0
23.04.2018 01:00:00 -1,4 -2,0 5 3 9 5 NNW 1013,2 50 0,0
23.04.2018 00:00:00 -1,8 -3,1 4 2 6 4 NW 1013,4 50 0,0
22.04.2018 23:00:00 0,6 -1,2 3 2 8 5 NW 1013,3 50 0,0
22.04.2018 22:00:00 1,6 -1,0 4 2 10 5 WNW 1013,2 50 0,0
22.04.2018 21:00:00 4,6 -0,4 5 3 17 9 S 1012,6 50 0,0
22.04.2018 20:00:00 4,7 0,6 4 2 14 8 SW 1012,5 50 0,0
22.04.2018 19:00:00 6,4 -0,8 5 3 22 12 W 1012,2 50 0,0
22.04.2018 18:00:00 6,7 4,5 9 5 21 12 NW 1012,2 50 0,0
22.04.2018 17:00:00 7,8 -0,4 9 5 24 13 WNW 1012,0 50 0,0
22.04.2018 16:00:00 8,5 -1,3 9 5 24 13 WNW 1011,8 48 0,0
22.04.2018 15:00:00 9,4 -1,6 7 4 19 10 W 1011,7 46 0,0
22.04.2018 14:00:00 8,3 -1,5 9 5 21 11 WNW 1011,9 50 0,0
22.04.2018 13:00:00 8,2 -0,6 9 5 23 12 NW 1011,6 50 0,0
22.04.2018 12:00:00 8,2 - 9 5 25 13 W 1011,2 50 0,0
22.04.2018 11:00:00 8,7 6,3 7 4 15 8 W 1010,7 50 0,0
22.04.2018 10:00:00 4,9 -0,3 5 3 10 6 SE 1010,9 50 0,0
22.04.2018 09:00:00 5,0 0,6 2 1 11 6 SW 1010,7 50 0,0
22.04.2018 08:00:00 1,4 -1,0 4 2 8 5 SSE 1010,9 50 0,0
22.04.2018 07:00:00 0,6 0,3 2 1 6 3 SE 1010,7 50 0,0
22.04.2018 06:00:00 -0,6 -1,3 2 1 6 3 WNW 1010,4 50 0,0
22.04.2018 05:00:00 -1,3 -2,9 4 2 6 3 NNW 1010,1 50 0,0
22.04.2018 04:00:00 -1,0 -1,3 3 1 6 3 SSE 1009,7 50 0,0
22.04.2018 03:00:00 -1,2 -2,9 2 1 7 4 NNW 1009,3 50 0,0
22.04.2018 02:00:00 -0,6 -2,5 2 1 5 3 W 1008,8 50 0,0
22.04.2018 01:00:00 0,0 -0,4 1 1 4 2 WNW 1008,2 50 0,0
22.04.2018 00:00:00 0,3 -0,3 3 1 4 2 S 1007,5 50 0,0
21.04.2018 23:00:00 0,2 -1,1 3 2 5 3 NW 1006,9 50 0,0
21.04.2018 22:00:00 0,8 -1,1 3 1 6 4 NW 1006,2 50 0,0
21.04.2018 21:00:00 1,3 0,3 2 1 9 5 SE 1005,4 50 0,0
21.04.2018 20:00:00 2,2 -0,4 4 2 14 7 NE 1004,4 50 0,0
21.04.2018 19:00:00 2,5 0,6 6 3 13 7 ENE 1003,6 50 0,0
21.04.2018 18:00:00 2,8 0,5 5 3 18 10 ENE 1002,7 45 0,0
21.04.2018 17:00:00 3,1 0,8 7 4 22 12 ENE 1001,9 50 0,0
21.04.2018 16:00:00 3,3 -0,3 8 4 22 12 ENE 1001,3 33 0,0
21.04.2018 15:00:00 4,0 -0,4 9 5 21 11 ENE 1000,6 50 0,0
21.04.2018 14:00:00 4,6 -0,4 8 5 19 11 ENE 1000,0 50 0,0
21.04.2018 13:00:00 4,6 0,4 9 5 20 11 ENE 999,5 50 0,0
21.04.2018 12:00:00 4,5 -0,5 10 5 19 10 E 999,1 50 0,0
21.04.2018 11:00:00 3,8 0,5 6 3 16 8 E 998,8 50 0,2
21.04.2018 10:00:00 2,4 0,0 5 3 18 10 ENE 998,6 11 0,0
21.04.2018 09:00:00 2,3 -0,1 7 4 19 10 E 998,3 41 0,0
21.04.2018 08:00:00 2,4 -0,2 7 4 19 10 E 998,1 50 0,0
21.04.2018 07:00:00 0,4 0,1 1 1 4 2 S 998,6 50 0,0
21.04.2018 06:00:00 -0,3 -0,6 2 1 6 3 NW 998,7 50 0,0
21.04.2018 05:00:00 -1,2 -1,5 3 1 6 4 N 999,0 50 0,0
21.04.2018 04:00:00 -1,2 -1,5 3 1 5 3 NW 999,5 50 0,0
21.04.2018 03:00:00 -0,6 -1,0 3 2 6 3 W 1000,1 50 0,0
21.04.2018 02:00:00 -0,3 -0,9 4 2 6 3 W 1000,5 50 0,0
21.04.2018 01:00:00 0,4 -0,7 1 1 4 2 ENE 1001,2 38 0,0
21.04.2018 00:00:00 0,5 -0,9 3 1 5 3 NNW 1001,9 50 0,0
20.04.2018 23:00:00 0,7 -1,2 2 1 6 3 NNW 1002,5 50 0,0
20.04.2018 22:00:00 1,0 -1,1 5 3 8 4 NNW 1003,3 50 0,0
20.04.2018 21:00:00 2,0 -0,6 4 2 8 4 WNW 1004,0 50 0,0
20.04.2018 20:00:00 3,5 1,7 2 1 11 6 S 1004,2 50 0,0
20.04.2018 19:00:00 6,4 2,1 4 2 12 6 W 1004,6 50 0,0
20.04.2018 18:00:00 8,2 -1,1 6 3 19 11 WSW 1005,0 50 0,0
20.04.2018 17:00:00 8,0 -1,3 9 5 22 12 WSW 1005,9 50 0,0
20.04.2018 16:00:00 10,3 8,6 10 6 28 15 WSW 1006,5 48 0,0
20.04.2018 15:00:00 9,8 5,4 13 7 27 15 SW 1007,6 50 0,0
20.04.2018 14:00:00 9,1 -0,2 14 8 29 16 WSW 1008,4 50 0,0
20.04.2018 13:00:00 9,6 0,5 12 7 28 15 WSW 1008,7 50 0,0
20.04.2018 12:00:00 9,5 0,9 16 9 29 15 WSW 1009,1 46 0,0
20.04.2018 11:00:00 9,1 5,1 17 9 32 17 WSW 1009,3 50 0,0
20.04.2018 10:00:00 8,2 2,6 7 4 20 11 SW 1009,4 50 0,0
20.04.2018 09:00:00 3,5 2,3 4 2 13 7 S 1010,7 49 0,0
20.04.2018 08:00:00 3,0 2,9 2 1 8 5 SE 1011,5 50 0,0
20.04.2018 07:00:00 1,4 1,3 1 1 6 4 W 1012,2 0,7 0,0
20.04.2018 06:00:00 0,9 0,8 4 2 14 7 NW 1012,6 10 0,1
20.04.2018 05:00:00 0,3 0,2 3 1 8 5 WSW 1013,2 1,2 0,0
20.04.2018 04:00:00 0,2 -0,9 3 1 6 3 WNW 1014,0 1,4 0,1
20.04.2018 03:00:00 1,4 1,3 3 2 8 4 WSW 1014,9 16 0,0
20.04.2018 02:00:00 1,5 1,4 1 1 6 4 E 1015,5 4,5 0,0
20.04.2018 01:00:00 1,4 1,0 1 1 8 4 N 1016,6 7 0,2
20.04.2018 00:00:00 1,6 0,1 5 3 8 5 NW 1018,0 6 2,1
19.04.2018 23:00:00 1,4 -0,1 4 2 8 5 NW 1018,7 9 1,3
19.04.2018 22:00:00 1,7 -0,1 3 1 7 4 NNW 1019,3 23 0,1
19.04.2018 21:00:00 1,9 -1,4 5 3 7 4 NNW 1019,9 50 0,0
19.04.2018 20:00:00 3,9 1,3 3 1 9 5 N 1020,4 50 0,0
19.04.2018 19:00:00 7,1 4,2 6 3 12 6 SW 1020,8 50 0,0
19.04.2018 18:00:00 9,4 1,6 6 3 20 11 WSW 1021,0 50 0,0
19.04.2018 17:00:00 10,3 0,9 7 4 23 13 SW 1021,4 50 0,0
19.04.2018 16:00:00 10,5 0,8 12 6 24 13 WSW 1021,8 50 0,0
19.04.2018 15:00:00 11,4 0,8 12 7 32 17 WNW 1022,1 50 0,0
19.04.2018 14:00:00 11,0 1,2 13 7 29 16 NW 1022,4 48 0,0
19.04.2018 13:00:00 9,7 - 12 6 29 16 NW 1022,7 49 0,0
19.04.2018 12:00:00 10,5 1,3 11 6 31 17 NW 1022,3 44 0,0
19.04.2018 11:00:00 9,8 1,4 11 6 23 13 NW 1022,1 48 0,0
19.04.2018 10:00:00 8,5 1,4 8 4 19 11 W 1022,5 50 0,0
19.04.2018 09:00:00 7,6 1,2 7 4 23 12 WSW 1022,5 50 0,0
19.04.2018 08:00:00 7,7 1,7 3 2 6 3 SSW 1022,2 50 0,0
19.04.2018 07:00:00 3,7 0,6 3 1 5 3 WNW 1022,4 50 0,0
19.04.2018 06:00:00 0,8 -0,7 5 3 9 5 NW 1022,3 50 0,0
19.04.2018 05:00:00 -0,1 -1,4 4 2 17 9 NNW 1021,9 50 0,0
19.04.2018 04:00:00 4,0 0,7 9 5 17 9 SW 1021,0 50 0,0
19.04.2018 03:00:00 5,1 1,0 9 5 23 12 SSW 1020,5 50 0,0
19.04.2018 02:00:00 5,1 1,4 5 3 29 15 W 1020,3 50 0,0
19.04.2018 01:00:00 5,5 0,9 6 3 16 8 SW 1019,9 50 0,0
19.04.2018 00:00:00 3,4 -0,8 4 2 18 10 SSW 1019,8 50 0,0
18.04.2018 23:00:00 4,0 -1,6 8 5 17 9 SW 1019,1 50 0,0
18.04.2018 22:00:00 4,4 -2,0 7 4 20 11 WSW 1018,6 50 0,0
18.04.2018 21:00:00 6,4 -0,1 8 4 21 11 WSW 1017,8 50 0,0
18.04.2018 20:00:00 7,5 -1,7 9 5 18 10 W 1017,2 50 0,0
18.04.2018 19:00:00 8,5 -2,5 10 5 22 12 W 1016,5 50 0,0
18.04.2018 18:00:00 10,1 6,4 8 4 25 13 WSW 1015,7 45 0,0
18.04.2018 17:00:00 10,6 -2,4 8 5 21 11 SW 1015,2 49 0,0
18.04.2018 16:00:00 12,0 - 9 5 16 9 WSW 1015,0 50 0,0
18.04.2018 15:00:00 11,6 - 8 5 14 8 SW 1015,4 45 0,0
18.04.2018 14:00:00 11,0 - 7 4 15 8 SW 1015,4 37 0,0
18.04.2018 13:00:00 11,3 - 8 4 18 10 SW 1015,4 49 0,0
18.04.2018 12:00:00 9,3 7,1 4 2 6 4 SE 1015,8 48 0,0
18.04.2018 11:00:00 5,9 -2,7 4 2 6 4 SE 1016,6 41 0,0
18.04.2018 10:00:00 3,9 -0,7 4 2 7 4 SSE 1017,1 48 0,0
18.04.2018 09:00:00 1,6 -3,5 3 1 5 3 SE 1017,8 49 0,0
18.04.2018 08:00:00 -1,3 -3,7 3 2 5 3 SSE 1018,4 50 0,0
18.04.2018 07:00:00 -4,1 -4,6 1 0 3 2 NE 1018,9 50 0,0
18.04.2018 06:00:00 -6,9 -7,6 1 1 5 3 SW 1019,4 50 0,0
18.04.2018 05:00:00 -7,6 -8,3 1 1 4 2 NW 1019,6 50 0,0
18.04.2018 04:00:00 -6,9 -7,4 1 1 5 3 NW 1019,6 50 0,0
18.04.2018 03:00:00 -5,8 -6,3 2 1 4 2 N 1019,7 50 0,0
18.04.2018 02:00:00 -4,9 -5,4 1 1 5 3 NNW 1019,8 50 0,0
18.04.2018 01:00:00 -4,2 -4,9 3 1 6 3 W 1019,9 50 0,0
18.04.2018 00:00:00 -3,6 -4,4 1 1 7 4 SE 1019,7 50 0,0
17.04.2018 23:00:00 -2,4 -3,7 4 2 11 6 NW 1019,3 50 0,0
17.04.2018 22:00:00 -1,8 -3,2 5 3 8 5 NW 1019,1 50 0,0
17.04.2018 21:00:00 -0,4 -3,4 5 3 9 5 NW 1018,9 50 0,0
17.04.2018 20:00:00 2,1 -2,0 3 2 6 3 NW 1018,4 50 0,0
17.04.2018 19:00:00 7,6 - 5 3 10 5 SW 1017,3 50 0,0
17.04.2018 18:00:00 11,1 - 5 3 13 7 S 1016,8 50 0,0
17.04.2018 17:00:00 11,2 -3,7 5 3 14 8 S 1016,8 50 0,0
17.04.2018 16:00:00 11,8 - 6 4 14 8 S 1016,9 50 0,0
17.04.2018 15:00:00 12,3 - 6 4 15 8 SW 1017,0 42 0,0
17.04.2018 14:00:00 11,6 - 7 4 13 7 SW 1017,2 42 0,0
17.04.2018 13:00:00 11,4 - 5 3 8 4 SE 1017,5 50 0,0
17.04.2018 12:00:00 9,8 3,1 3 2 7 4 SE 1018,0 39 0,0
17.04.2018 11:00:00 6,7 -2,2 5 3 7 4 SE 1018,6 50 0,0
17.04.2018 10:00:00 4,4 -3,6 2 1 7 4 SSE 1019,0 50 0,0
17.04.2018 09:00:00 1,9 -3,8 3 2 5 3 SSE 1019,4 50 0,0
17.04.2018 08:00:00 -2,1 -4,9 2 1 4 2 SSE 1019,6 50 0,0
17.04.2018 07:00:00 -3,0 -5,2 1 1 5 3 NW 1019,5 50 0,0
17.04.2018 06:00:00 -4,2 -5,0 1 0 5 3 N 1019,3 50 0,0
17.04.2018 05:00:00 -6,0 -7,1 2 1 5 3 NW 1019,1 50 0,0
17.04.2018 04:00:00 -5,4 -5,9 3 2 6 3 NNW 1018,8 50 0,0

tt = Température de l'air
td = dewpoint
ff = Vitesse du vent
fx = gusts
dd = Direction du vent
ppp = reduced air pressure
vv = visibility
rr = Quantités de précipitations

stations d'obs. à proximité